�N����,����,�~����,�C��,���x,�C��,����,���ϕ���,�ő�u�ԕ���,�ő厞����,���˗�,�I�_���x,�n�����x,�ő啗���N��,DTYPE
"19/12/07","00:10",0.0,4.2,88.6,1022.5,325.0,1.8,2.9,328.7,0.00,2.5,9.2,"00:09:28",1
"19/12/07","00:20",0.0,4.3,88.9,1022.0,326.4,2.1,4.7,340.4,0.00,2.7,9.2,"00:19:28",1
"19/12/07","00:30",0.0,4.3,89.0,1022.0,323.0,2.1,3.9,336.2,0.00,2.7,9.2,"00:23:04",1
"19/12/07","00:40",0.0,4.2,89.2,1021.8,318.5,1.8,3.3,344.6,0.00,2.6,8.7,"00:37:40",1
"19/12/07","00:50",0.0,4.2,89.3,1021.1,318.9,2.2,3.6,312.3,0.00,2.6,8.8,"00:44:16",1
"19/12/07","01:00",0.0,4.2,89.4,1021.1,325.6,2.1,2.9,326.8,0.00,2.7,8.9,"00:52:00",1
"19/12/07","01:10",0.0,4.0,89.6,1021.5,323.6,2.0,2.7,327.3,0.00,2.5,9.1,"01:08:00",1
"19/12/07","01:20",0.0,4.0,89.7,1021.5,318.0,2.1,3.3,315.6,0.00,2.5,8.9,"01:12:16",1
"19/12/07","01:30",0.0,4.0,89.7,1021.5,326.8,2.0,3.1,345.0,0.00,2.5,8.9,"01:24:00",1
"19/12/07","01:40",0.0,4.0,89.7,1021.3,324.2,2.0,3.1,294.1,0.00,2.5,8.8,"01:30:02",1
"19/12/07","01:50",0.0,4.1,89.7,1020.8,326.7,2.0,2.9,334.3,0.00,2.6,8.9,"01:44:00",1
"19/12/07","02:00",0.0,4.1,89.7,1021.1,318.8,2.2,3.3,335.2,0.00,2.6,8.9,"01:51:20",1
"19/12/07","02:10",0.0,4.1,89.6,1021.1,312.4,2.1,3.5,324.6,0.00,2.6,8.9,"02:04:00",1
"19/12/07","02:20",0.0,4.0,89.7,1020.8,308.7,2.5,3.9,337.6,0.00,2.5,8.9,"02:18:40",1
"19/12/07","02:30",0.0,4.1,89.6,1021.3,313.0,2.8,4.5,318.4,0.00,2.6,9.0,"02:20:48",1
"19/12/07","02:40",0.0,4.1,89.6,1021.1,320.3,2.6,4.7,331.1,0.00,2.6,9.0,"02:31:20",1
"19/12/07","02:50",0.0,4.2,89.5,1020.6,321.0,2.7,4.8,335.4,0.00,2.7,8.9,"02:46:00",1
"19/12/07","03:00",0.0,4.2,89.5,1020.6,314.0,2.7,4.1,323.5,0.00,2.7,8.8,"02:51:52",1
"19/12/07","03:10",0.0,4.2,89.6,1020.1,321.9,2.6,4.0,341.2,0.00,2.7,8.8,"03:02:00",1
"19/12/07","03:20",0.0,4.2,89.6,1020.6,321.5,2.8,4.5,333.9,0.00,2.7,8.6,"03:12:00",1
"19/12/07","03:30",0.0,4.1,89.6,1020.4,322.1,2.1,3.4,327.5,0.00,2.6,8.8,"03:24:32",1
"19/12/07","03:40",0.0,4.1,89.7,1021.1,314.9,2.1,3.5,313.5,0.00,2.6,8.6,"03:32:16",1
"19/12/07","03:50",0.0,4.1,89.7,1020.6,322.7,2.3,3.6,336.3,0.00,2.6,8.8,"03:42:00",1
"19/12/07","04:00",0.0,4.2,89.8,1020.6,320.9,3.0,5.4,343.5,0.00,2.7,8.7,"03:53:28",1
"19/12/07","04:10",0.0,4.1,89.9,1020.1,326.0,3.0,4.7,329.6,0.00,2.6,8.7,"04:02:48",1
"19/12/07","04:20",0.0,4.1,90.0,1019.9,328.3,2.6,3.6,322.8,0.00,2.6,8.7,"04:10:24",1
"19/12/07","04:30",0.0,4.1,90.2,1020.1,317.1,2.0,4.7,335.7,0.00,2.7,8.7,"04:28:00",1
"19/12/07","04:40",0.0,4.1,90.3,1020.1,321.6,2.1,3.6,327.9,0.00,2.7,8.7,"04:35:04",1
"19/12/07","04:50",0.0,4.1,90.4,1019.9,323.3,2.5,4.4,330.0,0.00,2.7,8.5,"04:46:24",1
"19/12/07","05:00",0.0,4.1,90.5,1019.9,330.3,3.0,4.5,335.5,0.00,2.7,8.8,"04:54:32",1
"19/12/07","05:10",0.0,4.2,90.5,1019.7,324.7,3.5,6.4,335.0,0.00,2.8,8.7,"05:09:28",1
"19/12/07","05:20",0.0,4.1,90.6,1019.7,325.1,3.5,5.8,331.1,0.00,2.7,8.6,"05:12:24",1
"19/12/07","05:30",0.0,4.1,90.6,1019.4,315.2,2.8,4.9,334.3,0.00,2.7,8.8,"05:21:52",1
"19/12/07","05:40",0.0,4.0,90.7,1019.0,322.1,2.6,3.9,332.0,0.00,2.7,8.6,"05:31:20",1
"19/12/07","05:50",0.0,4.0,90.7,1019.0,314.9,2.2,3.3,333.8,0.00,2.7,8.6,"05:49:36",1
"19/12/07","06:00",0.0,4.0,90.7,1019.4,318.4,2.6,4.3,314.2,0.00,2.7,8.6,"05:53:44",1
"19/12/07","06:10",0.0,4.0,90.7,1019.4,329.3,2.3,4.7,338.2,0.00,2.7,8.7,"06:00:48",1
"19/12/07","06:20",0.0,4.0,90.8,1019.4,324.6,2.8,5.4,336.9,0.00,2.7,8.7,"06:19:44",1
"19/12/07","06:30",0.0,4.0,90.8,1019.7,326.4,3.4,5.4,340.4,0.00,2.7,8.6,"06:21:52",1
"19/12/07","06:40",0.0,4.0,90.8,1019.7,326.1,2.5,4.2,341.7,0.00,2.7,8.6,"06:30:40",1
"19/12/07","06:50",0.0,3.9,90.9,1019.9,322.6,2.6,4.3,320.8,0.00,2.6,8.6,"06:45:28",1
"19/12/07","07:00",0.0,3.9,91.0,1019.7,298.5,1.7,3.1,321.2,0.00,2.6,8.5,"06:50:24",1
"19/12/07","07:10",0.0,3.9,91.1,1019.4,317.5,2.0,3.5,334.5,0.00,2.6,8.6,"07:06:08",1
"19/12/07","07:20",0.0,3.9,91.2,1019.2,323.1,2.5,4.1,325.2,0.00,2.6,8.5,"07:19:04",1
"19/12/07","07:30",0.0,3.9,91.2,1019.2,314.5,2.3,4.4,325.1,0.00,2.6,8.5,"07:22:56",1
"19/12/07","07:40",0.0,3.9,91.2,1019.7,315.2,2.0,3.1,336.2,0.00,2.6,8.5,"07:38:00",1
"19/12/07","07:50",0.0,4.0,91.3,1019.4,324.0,2.2,3.7,323.6,0.00,2.8,8.6,"07:44:56",1
"19/12/07","08:00",0.0,4.0,91.3,1019.2,323.7,2.3,4.0,339.1,0.00,2.8,8.5,"07:55:12",1
"19/12/07","08:10",0.0,4.1,91.3,1019.7,322.6,2.5,4.5,343.6,0.00,2.9,8.5,"08:01:04",1
"19/12/07","08:20",0.0,4.2,91.3,1019.4,323.4,2.3,4.3,339.2,0.01,3.0,8.6,"08:16:56",1
"19/12/07","08:30",0.0,4.3,91.3,1019.9,310.3,2.3,4.3,327.3,0.02,3.0,8.7,"08:21:12",1
"19/12/07","08:40",0.0,4.5,91.3,1020.1,310.1,2.3,4.1,318.7,0.03,3.2,8.6,"08:31:20",1
"19/12/07","08:50",0.0,4.5,91.1,1020.6,316.0,2.8,4.4,321.8,0.02,3.2,8.7,"08:47:52",1
"19/12/07","09:00",0.0,4.7,91.1,1020.1,311.5,2.5,4.2,329.9,0.05,3.4,8.5,"08:55:20",1
"19/12/07","09:10",0.0,5.0,90.8,1020.6,308.1,2.2,3.5,330.3,0.05,3.7,8.4,"09:04:16",1
"19/12/07","09:20",0.0,5.2,90.6,1021.1,302.0,2.0,3.2,319.6,0.02,3.8,8.6,"09:15:28",1
"19/12/07","09:30",0.0,5.3,90.4,1021.1,300.2,2.0,3.1,318.4,0.05,3.9,8.7,"09:20:32",1
"19/12/07","09:40",0.0,5.2,90.0,1021.5,304.1,2.0,3.2,321.0,0.03,3.7,8.7,"09:37:52",1
"19/12/07","09:50",0.0,5.3,89.9,1021.5,304.0,1.7,2.5,326.5,0.04,3.8,8.7,"09:40:32",1
"19/12/07","10:00",0.0,5.6,89.6,1021.3,310.9,2.0,2.9,315.2,0.07,4.1,8.8,"09:56:32",1
"19/12/07","10:10",0.0,5.8,89.1,1020.8,314.9,1.7,3.1,311.9,0.08,4.2,8.7,"10:04:16",1
"19/12/07","10:20",0.0,5.9,88.8,1021.1,318.0,1.3,2.6,319.2,0.11,4.2,8.8,"10:11:04",1
"19/12/07","10:30",0.0,6.2,88.0,1021.3,293.7,1.0,1.7,262.5,0.12,4.4,8.9,"10:26:56",1
"19/12/07","10:40",0.0,6.5,87.7,1021.5,281.6,1.1,1.7,264.2,0.14,4.6,9.0,"10:34:00",1
"19/12/07","10:50",0.0,6.6,86.8,1021.1,329.1,1.0,1.7,305.2,0.13,4.6,9.0,"10:49:28",1
"19/12/07","11:00",0.0,6.7,85.9,1020.6,323.7,1.0,2.0,307.9,0.16,4.6,9.3,"10:59:44",1
"19/12/07","11:10",0.0,7.1,84.3,1020.6,267.5,1.2,2.5,319.3,0.22,4.7,9.4,"11:02:48",1
"19/12/07","11:20",0.0,7.4,82.3,1020.6,256.2,0.7,1.3,253.7,0.15,4.6,9.5,"11:10:32",1
"19/12/07","11:30",0.0,7.4,80.7,1019.9,326.8,1.0,2.1,318.8,0.20,4.3,9.5,"11:26:32",1
"19/12/07","11:40",0.0,7.5,78.6,1020.4,261.0,1.3,2.9,239.1,0.18,4.1,9.3,"11:38:16",1
"19/12/07","11:50",0.0,7.9,77.6,1020.1,251.8,1.0,2.0,249.8,0.18,4.3,9.5,"11:41:44",1
"19/12/07","12:00",0.0,7.8,76.7,1019.9,9.8,0.7,1.2,26.4,0.13,4.0,9.8,"11:51:04",1
"19/12/07","12:10",0.0,8.2,76.8,1019.4,284.8,1.1,1.7,271.3,0.19,4.4,9.9,"12:08:48",1
"19/12/07","12:20",0.0,8.5,76.1,1019.0,282.6,1.1,1.7,274.6,0.17,4.6,9.8,"12:15:36",1
"19/12/07","12:30",0.0,8.4,75.4,1018.7,332.0,0.6,1.4,12.7,0.17,4.3,9.9,"12:20:48",1
"19/12/07","12:40",0.0,8.2,74.8,1018.7,234.3,1.2,3.1,239.7,0.13,4.0,10.0,"12:39:20",1
"19/12/07","12:50",0.0,8.0,75.0,1019.0,243.3,1.8,2.8,244.5,0.13,3.9,10.1,"12:46:40",1
"19/12/07","13:00",0.0,8.1,74.9,1019.0,284.4,1.0,1.8,232.4,0.10,4.0,10.1,"12:55:12",1
"19/12/07","13:10",0.0,8.3,74.8,1018.5,314.0,0.7,1.2,298.9,0.12,4.1,10.1,"13:07:28",1
"19/12/07","13:20",0.0,8.3,74.3,1018.5,87.2,0.8,1.9,100.4,0.13,4.0,9.8,"13:16:00",1
"19/12/07","13:30",0.0,8.6,74.2,1018.0,318.9,0.6,1.3,352.0,0.14,4.3,10.3,"13:25:12",1
"19/12/07","13:40",0.0,8.9,73.6,1017.8,277.5,0.6,1.1,334.9,0.13,4.5,10.2,"13:34:00",1
"19/12/07","13:50",0.0,9.0,72.7,1017.5,246.4,0.8,1.8,139.1,0.15,4.4,10.5,"13:45:12",1
"19/12/07","14:00",0.0,8.9,71.4,1018.0,250.3,1.3,2.1,248.6,0.11,4.1,10.4,"13:52:40",1
"19/12/07","14:10",0.0,9.0,71.3,1018.0,251.0,1.1,1.8,252.0,0.09,4.1,10.2,"14:09:20",1
"19/12/07","14:20",0.0,8.8,71.5,1018.0,234.4,0.7,1.4,222.3,0.07,4.0,10.4,"14:11:04",1
"19/12/07","14:30",0.0,8.6,72.2,1018.0,237.9,1.2,2.2,226.4,0.05,3.9,10.3,"14:28:48",1
"19/12/07","14:40",0.0,8.6,73.0,1018.5,239.4,1.0,1.9,244.3,0.07,4.1,10.3,"14:38:32",1
"19/12/07","14:50",0.0,8.8,72.7,1017.3,261.0,1.3,2.7,245.2,0.07,4.2,10.4,"14:43:28",1
"19/12/07","15:00",0.0,8.7,71.5,1017.3,259.4,1.5,2.6,238.9,0.06,3.9,10.5,"14:59:20",1
"19/12/07","15:10",0.0,8.9,70.2,1017.8,259.4,1.6,2.2,252.9,0.07,3.8,10.5,"15:01:28",1
"19/12/07","15:20",0.0,8.8,69.0,1017.1,267.8,1.5,2.7,246.6,0.04,3.5,10.3,"15:11:12",1
"19/12/07","15:30",0.0,9.0,68.5,1017.3,302.7,1.6,2.1,277.2,0.05,3.6,10.4,"15:24:56",1
"19/12/07","15:40",0.0,9.1,68.1,1016.8,322.6,1.7,2.2,320.6,0.04,3.6,10.5,"15:30:48",1
"19/12/07","15:50",0.0,9.0,67.8,1017.5,294.9,1.6,2.4,326.7,0.04,3.4,10.4,"15:43:52",1
"19/12/07","16:00",0.0,9.0,67.6,1017.5,309.1,1.6,2.1,324.0,0.05,3.4,10.5,"15:57:52",1
"19/12/07","16:10",0.0,9.0,67.3,1017.3,316.9,1.8,2.5,316.6,0.03,3.3,10.5,"16:06:32",1
"19/12/07","16:20",0.0,8.9,67.5,1017.8,307.5,1.8,2.4,320.4,0.03,3.3,10.5,"16:12:24",1
"19/12/07","16:30",0.0,8.8,67.8,1017.8,319.5,1.3,1.7,317.3,0.02,3.2,10.5,"16:21:12",1
"19/12/07","16:40",0.0,8.9,68.9,1017.3,323.2,1.5,1.9,313.7,0.01,3.5,10.5,"16:31:52",1
"19/12/07","16:50",0.0,8.5,71.6,1017.3,336.3,1.5,1.9,317.4,0.00,3.7,10.4,"16:49:52",1
"19/12/07","17:00",0.0,8.1,73.6,1017.8,317.2,1.7,2.2,321.1,0.00,3.7,10.4,"16:54:56",1
"19/12/07","17:10",0.0,7.7,74.8,1017.5,293.0,1.5,2.0,292.8,0.00,3.6,10.6,"17:06:24",1
"19/12/07","17:20",0.0,7.5,75.9,1017.1,312.4,1.7,2.7,330.7,0.00,3.6,10.3,"17:17:12",1
"19/12/07","17:30",0.0,7.1,76.9,1017.3,310.5,1.7,2.5,320.9,0.00,3.4,10.3,"17:20:56",1
"19/12/07","17:40",0.0,6.8,77.6,1017.1,308.6,1.5,2.1,314.2,0.00,3.2,10.1,"17:32:40",1
"19/12/07","17:50",0.0,6.5,78.5,1017.3,315.5,1.6,2.5,320.1,0.00,3.1,10.2,"17:49:52",1
"19/12/07","18:00",0.0,6.1,79.4,1016.8,308.9,1.6,2.6,316.9,0.00,2.8,10.1,"17:50:08",1
"19/12/07","18:10",0.0,5.7,80.1,1016.8,288.1,1.3,1.7,312.3,0.00,2.6,10.2,"18:09:54",1
"19/12/07","18:20",0.0,5.8,81.1,1017.5,280.3,1.5,2.1,290.5,0.00,2.9,10.0,"18:19:36",1
"19/12/07","18:30",0.0,6.0,82.0,1017.3,312.1,2.0,2.6,311.8,0.00,3.2,10.2,"18:23:12",1
"19/12/07","18:40",0.0,5.7,82.8,1017.5,303.8,1.6,2.5,321.7,0.00,3.0,9.9,"18:35:38",1
"19/12/07","18:50",0.0,5.7,83.6,1017.1,288.9,1.5,2.0,310.8,0.00,3.2,9.9,"18:40:24",1
"19/12/07","19:00",0.0,5.9,84.1,1017.8,288.9,1.5,2.0,307.9,0.00,3.5,9.9,"18:54:00",1
"19/12/07","19:10",0.0,6.0,84.5,1016.8,312.1,2.0,2.7,326.3,0.00,3.6,9.8,"19:08:16",1
"19/12/07","19:20",0.0,6.0,84.7,1017.5,306.0,2.0,3.3,336.2,0.00,3.7,9.8,"19:12:16",1
"19/12/07","19:30",0.0,6.1,84.7,1017.5,294.8,1.8,3.7,330.5,0.00,3.8,10.0,"19:27:12",1
"19/12/07","19:40",0.0,6.0,84.5,1017.8,306.0,1.8,2.7,331.3,0.00,3.6,9.7,"19:36:32",1
"19/12/07","19:50",0.0,6.0,84.4,1018.2,316.1,1.1,2.5,323.7,0.00,3.6,9.9,"19:40:48",1
"19/12/07","20:00",0.0,5.7,84.5,1018.0,308.3,0.7,1.4,281.8,0.00,3.3,9.7,"19:52:14",1
"19/12/07","20:10",0.0,5.3,84.7,1018.2,311.4,1.7,2.4,321.7,0.00,3.0,9.7,"20:02:46",1
"19/12/07","20:20",0.0,5.1,85.1,1018.0,323.8,1.3,1.9,322.9,0.00,2.8,9.7,"20:17:28",1
"19/12/07","20:30",0.0,4.7,85.4,1018.0,295.2,1.0,1.7,321.2,0.00,2.5,9.5,"20:28:14",1
"19/12/07","20:40",0.0,4.6,86.0,1017.8,315.1,0.6,0.8,296.5,0.00,2.5,9.4,"20:31:30",1
"19/12/07","20:50",0.0,4.3,86.6,1017.8,323.7,0.8,1.3,325.5,0.00,2.3,9.3,"20:48:22",1
"19/12/07","21:00",0.0,4.2,87.0,1017.3,313.8,1.1,1.8,337.7,0.00,2.3,9.3,"20:50:50",1
"19/12/07","21:10",0.0,4.1,87.7,1017.3,339.8,0.7,1.4,333.8,0.00,2.3,9.4,"21:01:22",1
"19/12/07","21:20",0.0,4.4,88.3,1017.5,358.9,1.0,1.4,323.6,0.00,2.7,9.2,"21:14:56",1
"19/12/07","21:30",0.0,4.7,88.4,1017.3,342.6,1.2,2.0,342.8,0.00,3.0,9.1,"21:25:20",1
"19/12/07","21:40",0.0,4.4,88.7,1017.3,331.9,1.1,1.9,317.0,0.00,2.7,9.2,"21:37:36",1
"19/12/07","21:50",0.0,3.8,88.7,1017.1,302.1,1.1,2.0,335.4,0.00,2.1,9.1,"21:44:12",1
"19/12/07","22:00",0.0,3.1,89.2,1017.1,301.8,1.6,2.5,320.7,0.00,1.5,9.0,"21:56:10",1
"19/12/07","22:10",0.0,2.8,89.8,1017.3,313.1,2.0,2.9,315.4,0.00,1.3,8.8,"22:09:12",1
"19/12/07","22:20",0.0,3.0,90.0,1017.3,324.2,2.0,2.5,329.3,0.00,1.6,8.7,"22:14:26",1
"19/12/07","22:30",0.0,2.8,90.4,1017.1,312.7,1.7,2.2,321.3,0.00,1.4,8.9,"22:20:16",1
"19/12/07","22:40",0.0,3.3,90.7,1017.3,313.5,1.3,2.4,320.3,0.00,2.0,8.8,"22:34:24",1
"19/12/07","22:50",0.0,3.6,90.9,1017.1,287.1,0.7,1.1,308.2,0.00,2.3,8.7,"22:45:32",1
"19/12/07","23:00",0.0,3.8,91.1,1017.3,304.5,1.2,1.9,316.2,0.00,2.5,8.7,"22:55:18",1
"19/12/07","23:10",0.0,4.1,91.3,1017.5,295.0,1.0,1.2,289.3,0.00,2.9,8.5,"23:04:04",1
"19/12/07","23:20",0.0,4.3,91.4,1017.5,270.0,0.8,1.4,312.9,0.00,3.1,8.7,"23:10:40",1
"19/12/07","23:30",0.0,4.3,91.4,1017.8,254.2,0.5,1.1,302.0,0.00,3.1,8.7,"23:29:54",1
"19/12/07","23:40",0.0,4.1,91.6,1017.8,317.0,1.3,2.2,337.8,0.00,2.9,8.6,"23:39:12",1
"19/12/07","23:50",0.0,3.5,91.7,1017.8,301.4,1.3,2.4,315.8,0.00,2.3,8.8,"23:40:56",1
"19/12/07","24:00",0.0,3.2,92.0,1017.5,314.5,1.5,2.1,337.6,0.00,2.1,8.6,"23:52:56",1
